Location: Caltech
(34.1382°N, 118.1253°W)
Time: 05:32:33
(UTC-07:00)

Cosmos 2237 Rocket - Visible Passes

Search period start: 25 April 2015 00:00
Search period end: 05 May 2015 00:00
Orbit: 834 x 851 km, 71.0° (Epoch: 24 April)

Date Brightness Start Highest point End Pass type
(mag) Time Alt. Az. Time Alt. Az. Time Alt. Az.
25 Apr 4.7 04:20:52 10° SE 04:24:24 18° E 04:28:11 10° ENE visible
26 Apr 4.7 04:06:17 10° SE 04:09:37 17° E 04:13:15 10° ENE visible
27 Apr 4.7 03:51:44 10° SE 03:54:51 16° E 03:58:17 10° ENE visible
27 Apr 2.4 05:32:54 10° SW 05:38:29 57° WNW 05:44:06 10° NNE visible
28 Apr 4.7 03:37:11 10° SE 03:40:05 15° E 03:43:18 10° ENE visible
28 Apr 2.3 05:18:04 10° SSW 05:23:41 60° WNW 05:29:20 10° NNE visible
29 Apr 4.7 03:22:41 10° SE 03:25:19 14° E 03:28:18 10° ENE visible
29 Apr 2.3 05:03:41 12° SSW 05:08:53 64° WNW 05:14:33 10° NNE visible
30 Apr 4.7 03:08:12 10° SE 03:10:32 13° E 03:13:15 10° ENE visible
30 Apr 2.2 04:49:49 18° SSW 04:54:05 67° WNW 04:59:47 10° NNE visible
01 May 4.7 02:54:00 10° ESE 02:55:46 12° E 02:58:09 10° ENE visible
01 May 2.2 04:35:51 25° SSW 04:39:17 71° WNW 04:45:00 10° NNE visible
02 May 4.7 02:39:58 11° ESE 02:41:00 11° E 02:42:59 10° ENE visible
02 May 2.1 04:21:49 33° SSW 04:24:30 75° WNW 04:30:13 10° NNE visible
03 May 4.7 02:25:52 11° ESE 02:26:13 11° E 02:27:40 10° E visible
03 May 2.1 04:07:43 42° SSW 04:09:42 79° WNW 04:15:26 10° NNE visible
04 May 2.1 03:53:33 54° SSW 03:54:54 83° WNW 04:00:38 10° NNE visible
